Wind_Speed
24 30 23 26 23 25 26 25 27 29 28 27 26 24 21 17 12 10 7 9 5 5 7 3 6 5 5 8 8 9 11 14
21 27 21 25 26 25 26 26 28 29 29 28 27 25 22 18 14 10 9 8 7 6 8 6 9 6 7 7 11 11 11 12
25 26 20 24 27 27 26 27 31 31 31 30 28 25 21 18 16 13 12 10 8 8 8 9 7 8 9 8 8 11 12 11
27 27 19 22 27 29 26 29 32 31 31 29 27 25 23 20 21 17 15 9 8 9 9 10 10 11 11 10 10 11 12 12
27 28 22 20 23 31 30 31 33 31 31 29 28 27 24 23 23 20 18 16 10 10 12 13 13 10 12 13 11 12 13 13
28 28 27 24 24 30 33 32 35 34 33 31 27 25 27 25 26 25 21 20 12 12 15 16 16 14 13 13 15 13 13 14
31 30 31 28 29 29 34 35 34 37 36 35 33 30 30 30 32 30 25 18 20 17 16 17 17 18 16 15 16 16 15 15
35 33 34 32 33 33 33 38 36 36 38 37 38 35 32 33 34 36 30 24 25 22 20 21 20 21 18 17 17 18 18 17
38 40 36 35 34 36 36 38 40 39 36 35 37 38 35 37 37 35 32 29 33 30 26 24 22 22 21 20 20 20 20 19
40 43 38 37 37 38 37 39 41 43 43 38 38 38 39 38 36 35 36 35 35 34 30 27 25 24 23 23 23 22 21 21
42 42 40 38 34 39 40 42 43 45 46 45 39 40 40 43 40 38 38 33 35 37 31 32 26 25 24 24 25 24 23 21
45 44 42 41 36 39 46 46 46 47 48 48 47 45 44 42 40 38 35 29 35 38 33 30 29 28 25 24 26 25 23 20
46 46 44 44 39 40 45 45 43 47 48 49 50 50 46 44 42 40 35 34 32 38 37 28 29 26 27 23 25 25 24 23
47 48 45 46 43 41 46 46 42 43 46 51 55 52 49 47 45 43 36 35 31 32 33 39 31 29 28 27 26 27 25 25
50 48 46 46 44 46 47 45 46 46 46 47 55 56 53 50 47 44 39 37 34 34 34 33 35 33 30 31 28 27 26 27
54 49 49 48 47 48 49 45 42 39 40 42 48 56 57 53 52 47 42 40 37 36 37 36 39 35 33 33 31 32 31 26
54 52 49 49 49 50 47 52 46 43 43 43 46 50 56 58 56 51 45 44 40 39 39 38 37 38 37 35 34 36 34 30
54 50 50 52 50 53 47 51 51 48 45 43 45 48 57 59 58 55 51 47 46 44 42 43 41 40 39 40 38 36 34 35
53 52 51 52 50 50 49 52 52 49 46 46 47 48 52 57 60 58 54 51 49 50 47 45 42 41 40 39 40 39 39 39
54 54 53 51 50 49 52 54 51 51 49 48 49 48 51 56 62 61 60 56 57 56 56 51 48 45 46 45 40 40 42 42
Wind_Direction
285 278 265 262 250 243 240 231 224 219 219 221 231 234 236 240 244 264 298 286 267 281 309 287 266 246 202 188 176 175 165 154
281 276 261 257 244 237 233 224 219 217 215 222 230 232 236 241 242 264 276 283 256 260 279 300 250 266 246 207 187 183 182 171
270 273 247 251 244 233 228 217 218 217 216 221 229 231 234 241 241 268 272 255 250 241 252 277 247 256 255 248 218 197 191 190
264 269 243 244 241 229 223 218 221 220 221 224 231 230 233 247 241 256 259 230 250 232 236 260 264 240 254 248 241 226 211 210
253 259 252 244 241 230 224 219 224 226 224 227 230 230 234 247 244 251 260 237 230 230 227 239 261 245 238 245 242 237 230 222
244 246 254 247 235 229 225 222 223 229 228 227 228 239 236 245 242 248 247 237 239 227 229 233 252 255 233 232 238 240 238 235
241 236 241 242 236 231 225 225 224 225 229 227 230 235 236 243 242 246 248 233 253 225 227 231 241 254 246 226 229 233 236 236
243 237 234 242 230 234 227 225 226 225 228 230 231 231 235 238 240 245 248 245 252 244 219 228 233 246 249 235 225 229 230 233
242 241 227 234 237 232 231 227 226 225 227 230 230 230 234 233 234 248 245 247 249 248 224 226 231 237 247 244 232 227 229 231
247 240 228 227 230 237 235 233 228 225 225 226 230 231 226 233 238 241 245 246 247 248 234 222 227 235 241 240 239 231 229 232
248 243 239 234 225 234 238 237 233 227 225 224 223 224 222 233 236 240 242 244 239 242 236 221 220 233 237 239 238 237 233 233
243 243 240 239 233 229 236 237 232 230 224 222 222 224 227 233 236 243 251 249 237 236 237 221 217 226 234 238 237 237 238 235
241 241 243 244 239 234 236 240 238 230 228 221 222 226 226 228 233 243 245 249 244 235 238 237 223 226 235 238 239 238 238 236
237 238 242 247 242 238 236 237 238 236 231 225 222 226 229 228 233 242 243 250 249 238 243 242 234 227 234 240 239 235 235 244
237 238 242 245 242 235 232 230 230 228 230 228 221 223 227 229 233 241 242 246 247 240 243 239 237 229 233 239 241 238 234 236
236 235 238 235 236 232 229 230 234 235 234 236 229 223 225 227 232 237 239 245 246 245 239 235 234 232 234 242 241 236 234 233
231 232 234 231 235 231 229 231 235 234 230 232 234 228 224 227 232 235 235 242 244 244 241 242 241 237 237 237 237 236 233 232
230 229 230 230 237 233 230 233 232 233 234 230 233 231 225 226 229 233 233 237 244 246 242 239 240 238 237 235 234 234 235 236
232 232 231 231 234 242 231 233 230 229 231 231 233 233 232 226 228 232 232 237 241 246 246 243 244 242 241 239 238 236 234 235
232 236 233 232 232 238 238 233 232 230 228 230 233 234 233 229 229 231 232 233 236 241 243 242 240 240 239 240 237 237 235 236
Height
5817 5812 5814 5814 5814 5815 5818 5821 5825 5828 5833 5837 5841 5845 5848 5851 5854 5856 5858 5860 5861 5860 5859 5860 5861 5862 5864 5865 5866 5867 5868 5868
5812 5807 5808 5810 5809 5811 5814 5817 5821 5825 5829 5834 5837 5841 5845 5848 5851 5853 5855 5858 5860 5860 5859 5859 5860 5862 5863 5865 5866 5868 5869 5870
5806 5802 5802 5804 5805 5807 5809 5812 5816 5820 5825 5830 5833 5838 5843 5846 5848 5850 5852 5855 5858 5859 5859 5858 5859 5861 5862 5864 5866 5867 5869 5870
5799 5797 5797 5798 5801 5802 5805 5808 5812 5817 5822 5827 5831 5835 5839 5842 5845 5847 5849 5852 5855 5858 5858 5857 5858 5860 5862 5864 5865 5867 5868 5870
5791 5792 5792 5793 5796 5799 5801 5804 5809 5813 5819 5824 5827 5831 5835 5838 5841 5844 5846 5848 5851 5855 5856 5856 5856 5858 5861 5862 5864 5866 5867 5868
5784 5786 5785 5787 5790 5793 5797 5800 5804 5809 5815 5819 5824 5828 5831 5834 5837 5839 5841 5844 5846 5851 5854 5854 5854 5856 5858 5860 5862 5864 5866 5867
5777 5778 5779 5781 5784 5786 5791 5795 5798 5804 5808 5814 5818 5823 5827 5829 5831 5833 5836 5838 5841 5846 5850 5852 5852 5853 5855 5857 5859 5861 5863 5865
5769 5770 5771 5774 5776 5780 5784 5788 5793 5796 5801 5807 5812 5817 5821 5824 5825 5828 5830 5834 5836 5841 5845 5848 5850 5850 5852 5854 5856 5858 5860 5861
5757 5763 5763 5767 5770 5772 5776 5780 5785 5790 5795 5799 5805 5810 5814 5815 5820 5822 5823 5826 5829 5832 5839 5843 5846 5848 5848 5850 5852 5854 5856 5858
5747 5752 5756 5757 5762 5764 5767 5773 5777 5782 5787 5792 5797 5803 5807 5809 5813 5815 5817 5821 5822 5827 5832 5837 5841 5844 5844 5845 5847 5850 5852 5854
5735 5740 5747 5749 5753 5756 5758 5762 5767 5773 5779 5785 5790 5795 5799 5802 5804 5807 5809 5814 5816 5820 5826 5830 5834 5838 5840 5841 5842 5844 5847 5850
5722 5729 5735 5739 5744 5746 5747 5750 5756 5762 5768 5776 5782 5787 5791 5793 5798 5800 5801 5805 5808 5813 5818 5822 5826 5829 5834 5837 5838 5841 5844 5846
5713 5717 5726 5729 5733 5736 5740 5742 5748 5752 5760 5767 5773 5777 5784 5788 5791 5794 5797 5798 5802 5807 5810 5815 5819 5825 5828 5832 5835 5837 5839 5841
5704 5707 5715 5719 5722 5728 5731 5735 5740 5746 5750 5756 5763 5769 5774 5779 5783 5787 5790 5790 5794 5799 5802 5808 5814 5819 5822 5826 5830 5834 5836 5837
5692 5697 5703 5709 5714 5718 5721 5724 5727 5731 5736 5743 5751 5759 5766 5771 5776 5781 5784 5786 5789 5791 5795 5800 5807 5811 5815 5819 5823 5829 5831 5831
5681 5687 5693 5700 5704 5707 5711 5717 5721 5728 5733 5738 5744 5749 5756 5763 5766 5772 5777 5779 5782 5785 5788 5793 5797 5803 5807 5812 5817 5821 5823 5828
5670 5676 5681 5689 5692 5698 5703 5708 5714 5719 5722 5728 5734 5740 5746 5753 5758 5764 5768 5771 5775 5777 5781 5785 5790 5795 5800 5803 5808 5812 5816 5820
5660 5665 5670 5677 5682 5688 5693 5699 5704 5708 5714 5720 5724 5729 5735 5742 5748 5754 5760 5764 5767 5771 5774 5777 5782 5785 5789 5794 5800 5805 5809 5811
5652 5656 5659 5666 5672 5677 5686 5690 5694 5699 5705 5710 5714 5721 5725 5733 5738 5744 5750 5757 5759 5763 5766 5770 5774 5778 5782 5787 5791 5796 5799 5801
5638 5645 5651 5655 5663 5669 5678 5682 5685 5690 5696 5700 5705 5711 5717 5723 5726 5732 5740 5744 5748 5752 5756 5760 5764 5768 5772 5775 5781 5785 5789 5793